WB9TLH-11 Weather Reports


time (UTC)temp
C
wind
direction
speed
KPH
gust
KPH
rain 1hr
cm
rain 24hr
cm
rain mn
cm
humidity
%
barometer
mb
20260905172752 32 157 1.6 9.7 0.00 0.03 0.03 49 1012.6
20260905172252 32 157 3.2 4.8 0.00 0.03 0.03 50 1012.6
20260905172229 32 157 3.2 4.8 0.00 0.03 0.03 50 1012.6
20260905171752 32 157 3.2 9.7 0.00 0.03 0.03 48 1012.6
20260905171252 32 147 3.2 6.4 0.00 0.03 0.03 51 1012.6
20260905171229 32 147 3.2 6.4 0.00 0.03 0.03 51 1012.6
20260905170752 32 148 3.2 8.0 0.00 0.03 0.03 51 1012.7
20260905170252 31 80 1.6 9.7 0.00 0.03 0.03 52 1013.0
20260905170230 31 80 1.6 9.7 0.00 0.03 0.03 52 1013.0
20260905165752 31 155 1.6 4.8 0.00 0.03 0.03 51 1013.1
20260905165252 31 155 1.6 8.0 0.00 0.03 0.03 53 1013.2
20260905164752 31 155 1.6 6.4 0.00 0.03 0.03 54 1013.4
20260905164252 31 155 4.8 9.7 0.00 0.03 0.03 53 1013.3
20260905163752 31 157 4.8 12.9 0.00 0.03 0.03 53 1013.3
20260905163252 31 157 3.2 12.9 0.00 0.03 0.03 53 1013.3
20260905163229 31 157 3.2 12.9 0.00 0.03 0.03 53 1013.3
20260905162752 31 160 3.2 8.0 0.00 0.03 0.03 54 1013.2
20260905162252 30 144 3.2 4.8 0.00 0.03 0.03 54 1013.1
20260905162229 30 144 3.2 6.4 0.00 0.03 0.03 54 1013.2
20260905161752 30 145 4.8 8.0 0.00 0.03 0.03 54 1013.2
20260905161252 30 159 4.8 14.5 0.00 0.03 0.03 57 1013.1
20260905161230 30 159 4.8 14.5 0.00 0.03 0.03 55 1013.1
20260905160752 30 161 4.8 12.9 0.00 0.03 0.03 54 1013.2
20260905160252 30 149 4.8 9.7 0.00 0.03 0.03 55 1013.1
20260905160229 30 163 4.8 9.7 0.00 0.03 0.03 55 1013.1
20260905155752 30 92 3.2 9.7 0.00 0.03 0.03 55 1013.3
20260905155252 30 161 4.8 9.7 0.00 0.03 0.03 55 1013.4
20260905155229 29 161 3.2 9.7 0.00 0.03 0.03 55 1013.4
20260905154752 29 165 3.2 11.3 0.00 0.03 0.03 55 1013.6
20260905154252 29 119 3.2 4.8 0.00 0.03 0.03 56 1013.6
20260905153752 28 111 3.2 9.7 0.00 0.03 0.03 57 1013.6
20260905153252 28 150 4.8 9.7 0.00 0.03 0.03 58 1013.6
20260905152752 28 148 6.4 11.3 0.00 0.03 0.03 58 1013.6
20260905152252 28 153 6.4 17.7 0.00 0.03 0.03 60 1013.6
20260905152229 28 153 6.4 17.7 0.00 0.03 0.03 60 1013.6
20260905151752 27 99 4.8 11.3 0.00 0.03 0.03 62 1013.6
20260905151252 27 83 4.8 12.9 0.00 0.03 0.03 61 1013.5
20260905151229 27 83 4.8 12.9 0.00 0.03 0.03 63 1013.5
20260905150752 27 74 6.4 11.3 0.00 0.03 0.03 62 1013.5
20260905150252 27 86 4.8 12.9 0.00 0.03 0.03 62 1013.5
20260905150230 27 69 4.8 11.3 0.00 0.03 0.03 62 1013.5
20260905145752 27 102 6.4 14.5 0.00 0.03 0.03 63 1013.6
20260905145252 27 101 6.4 12.9 0.00 0.03 0.03 62 1013.7
20260905145231 27 101 6.4 12.9 0.00 0.03 0.03 62 1013.7
20260905144752 27 137 6.4 16.1 0.00 0.03 0.03 62 1013.8
20260905144252 27 99 4.8 11.3 0.00 0.03 0.03 63 1013.9
20260905144231 27 115 4.8 11.3 0.00 0.03 0.03 64 1013.9
20260905143752 27 162 6.4 12.9 0.00 0.03 0.03 65 1013.8
20260905143252 26 82 6.4 16.1 0.00 0.03 0.03 65 1013.8
20260905143232 26 123 8.0 12.9 0.00 0.03 0.03 65 1013.8
20260905142752 26 85 8.0 12.9 0.00 0.03 0.03 67 1013.8
20260905142252 26 157 8.0 19.3 0.00 0.03 0.03 67 1013.7
20260905142233 26 157 8.0 19.3 0.00 0.03 0.03 67 1013.8
20260905141752 26 160 6.4 12.9 0.00 0.03 0.03 69 1013.7
20260905141252 26 78 4.8 14.5 0.00 0.03 0.03 68 1013.8
20260905141231 26 78 4.8 14.5 0.00 0.03 0.03 68 1013.9
20260905140752 26 90 4.8 14.5 0.00 0.03 0.03 69 1013.8
20260905140252 26 90 4.8 14.5 0.00 0.03 0.03 69 1013.8
20260905140232 26 120 4.8 14.5 0.00 0.03 0.03 69 1013.8
20260905135752 26 120 4.8 12.9 0.00 0.03 0.03 71 1013.8
20260905135252 26 78 4.8 14.5 0.00 0.03 0.03 71 1013.9
20260905135230 26 102 4.8 14.5 0.00 0.03 0.03 71 1013.9
20260905134752 26 88 4.8 12.9 0.00 0.03 0.03 72 1013.9
20260905134252 25 94 4.8 14.5 0.03 0.03 0.03 74 1014.0
20260905133752 25 71 6.4 16.1 0.03 0.03 0.03 74 1014.0
20260905133252 25 79 4.8 14.5 0.03 0.03 0.03 75 1013.8
20260905132752 25 77 4.8 14.5 0.03 0.03 0.03 76 1013.9
20260905132252 25 115 4.8 8.0 0.03 0.03 0.03 77 1013.8
20260905132230 25 115 4.8 12.9 0.03 0.03 0.03 77 1013.8
20260905131752 25 103 4.8 14.5 0.03 0.03 0.03 77 1013.8
20260905131252 24 48 4.8 12.9 0.03 0.03 0.03 78 1013.8
20260905131230 24 95 4.8 12.9 0.03 0.03 0.03 78 1013.8
20260905130752 24 105 3.2 14.5 0.03 0.03 0.03 79 1014.0
20260905130252 24 109 1.6 11.3 0.03 0.03 0.03 79 1013.9
20260905130230 24 109 1.6 11.3 0.03 0.03 0.03 79 1013.9
20260905125752 24 89 1.6 11.3 0.03 0.03 0.03 77 1013.8
20260905125252 25 89 1.6 11.3 0.03 0.03 0.03 76 1013.8
20260905125230 25 87 1.6 8.0 0.03 0.03 0.03 76 1013.7
20260905124752 25 127 1.6 4.8 0.03 0.03 0.03 74 1013.8
20260905124252 26 107 3.2 6.4 0.00 0.00 0.00 72 1013.7
20260905123752 26 350 1.6 14.5 0.00 0.00 0.00 70 1013.6
20260905123252 26 355 0.0 0.0 0.00 0.00 0.00 67 1013.3
20260905122752 26 355 0.0 0.0 0.00 0.00 0.00 66 1012.9
20260905122252 26 355 0.0 0.0 0.00 0.00 0.00 67 1012.8
20260905122231 26 355 0.0 0.0 0.00 0.00 0.00 66 1012.8
20260905121752 26 355 0.0 0.0 0.00 0.00 0.00 67 1012.8
20260905121252 26 355 0.0 0.0 0.00 0.00 0.00 66 1012.9
20260905120752 26 355 0.0 0.0 0.00 0.00 0.00 66 1012.8
20260905120252 26 355 0.0 0.0 0.00 0.00 0.00 66 1012.8
20260905120230 26 355 0.0 0.0 0.00 0.00 0.00 66 1012.8
20260905115752 26 355 0.0 0.0 0.00 0.00 0.00 66 1012.6
20260905115252 26 355 0.0 0.0 0.00 0.00 0.00 66 1012.6
20260905115230 26 355 0.0 0.0 0.00 0.00 0.00 67 1012.6
20260905114753 26 355 0.0 0.0 0.00 0.00 0.00 67 1012.6
20260905114252 26 355 0.0 1.6 0.00 0.00 0.00 67 1012.6
20260905113752 26 355 0.0 0.0 0.00 0.00 0.00 67 1012.6
20260905113252 26 355 0.0 0.0 0.00 0.00 0.00 67 1012.5
20260905112752 26 355 0.0 1.6 0.00 0.00 0.00 68 1012.5
20260905112252 26 355 0.0 0.0 0.00 0.00 0.00 68 1012.3
20260905111752 26 355 0.0 3.2 0.00 0.00 0.00 68 1012.2
20260905111252 26 355 0.0 1.6 0.00 0.00 0.00 68 1012.2
20260905110752 26 355 0.0 1.6 0.00 0.00 0.00 68 1012.2
20260905110252 26 355 0.0 1.6 0.00 0.00 0.00 69 1012.2
20260905110230 26 355 0.0 1.6 0.00 0.00 0.00 69 1012.2
20260905105752 26 355 0.0 1.6 0.00 0.00 0.00 70 1012.1
20260905105252 26 355 0.0 0.0 0.00 0.00 0.00 70 1012.1
20260905104752 26 355 0.0 0.0 0.00 0.00 0.00 69 1012.2
20260905104252 26 355 0.0 0.0 0.00 0.00 0.00 69 1012.2
20260905104230 26 355 0.0 0.0 0.00 0.00 0.00 69 1012.2
20260905103752 26 355 0.0 0.0 0.00 0.00 0.00 70 1012.2
20260905103252 26 355 0.0 0.0 0.00 0.00 0.00 70 1012.2
20260905103231 26 355 0.0 0.0 0.00 0.00 0.00 70 1012.3
20260905102752 26 355 0.0 0.0 0.00 0.00 0.00 70 1012.3
20260905102230 26 355 0.0 0.0 0.00 0.00 0.00 71 1012.4
20260905101752 26 355 0.0 0.0 0.00 0.00 0.00 71 1012.3
20260905101252 26 355 0.0 0.0 0.00 0.00 0.00 72 1012.3
20260905101230 26 355 0.0 0.0 0.00 0.00 0.00 72 1012.4
20260905100752 26 355 0.0 0.0 0.00 0.00 0.00 72 1012.3
20260905100252 26 355 0.0 0.0 0.00 0.00 0.00 72 1012.3
20260905095752 26 355 0.0 0.0 0.00 0.00 0.00 72 1012.3
20260905095253 26 355 0.0 0.0 0.00 0.00 0.00 72 1012.2
20260905094753 26 355 0.0 0.0 0.00 0.00 0.00 72 1012.2
20260905094230 26 355 0.0 0.0 0.00 0.00 0.00 72 1012.2
20260905093753 26 355 0.0 0.0 0.00 0.00 0.00 72 1012.2
20260905093230 26 355 0.0 0.0 0.00 0.00 0.00 72 1012.2
20260905092753 26 355 0.0 0.0 0.00 0.00 0.00 72 1012.1
20260905092229 26 355 0.0 0.0 0.00 0.00 0.00 71 1012.1
20260905091753 26 355 0.0 0.0 0.00 0.00 0.00 71 1012.1
20260905091253 26 355 0.0 0.0 0.00 0.00 0.00 71 1012.0
20260905090753 26 355 0.0 0.0 0.00 0.00 0.00 71 1012.1
20260905090253 26 355 0.0 0.0 0.00 0.00 0.00 70 1012.1
20260905090229 26 355 0.0 0.0 0.00 0.00 0.00 70 1012.0
20260905085753 26 355 0.0 0.0 0.00 0.00 0.00 70 1012.0
20260905085253 26 355 0.0 0.0 0.00 0.00 0.00 70 1012.0
20260905084753 26 355 0.0 0.0 0.00 0.00 0.00 70 1011.9
20260905084253 26 355 0.0 0.0 0.00 0.00 0.00 70 1011.8
20260905083753 27 355 0.0 0.0 0.00 0.00 0.00 70 1011.7
20260905083232 27 355 0.0 0.0 0.00 0.00 0.00 70 1011.7
20260905082753 27 355 0.0 0.0 0.00 0.00 0.00 70 1011.7
20260905082231 27 355 0.0 0.0 0.00 0.00 0.00 70 1011.6
20260905081753 27 355 0.0 0.0 0.00 0.00 0.00 70 1011.6
20260905081253 27 355 0.0 0.0 0.00 0.00 0.00 70 1011.6
20260905080753 27 355 0.0 0.0 0.00 0.00 0.00 70 1011.6
20260905080229 27 355 0.0 0.0 0.00 0.00 0.00 70 1011.7
20260905075753 27 355 0.0 0.0 0.00 0.00 0.00 70 1011.6
20260905075230 27 355 0.0 0.0 0.00 0.00 0.00 69 1011.6
20260905074753 27 355 0.0 0.0 0.00 0.00 0.00 69 1011.6
20260905074253 27 355 0.0 0.0 0.00 0.00 0.00 68 1011.6
20260905074231 27 355 0.0 0.0 0.00 0.00 0.00 68 1011.5
20260905073753 27 355 0.0 0.0 0.00 0.00 0.00 68 1011.5
20260905073229 27 355 0.0 0.0 0.00 0.00 0.00 67 1011.6
20260905072753 27 355 0.0 0.0 0.00 0.00 0.00 67 1011.6
20260905072253 27 355 0.0 0.0 0.00 0.00 0.00 67 1011.6
20260905072230 27 355 0.0 0.0 0.00 0.00 0.00 67 1011.7
20260905071753 27 355 0.0 0.0 0.00 0.00 0.00 67 1011.8
20260905071230 27 355 0.0 0.0 0.00 0.00 0.00 66 1011.9
20260905070753 27 355 0.0 0.0 0.00 0.00 0.00 67 1012.0
20260905070253 27 355 0.0 0.0 0.00 0.00 0.00 67 1012.1
20260905070232 27 355 0.0 0.0 0.00 0.00 0.00 67 1012.0
20260905065753 27 355 0.0 0.0 0.00 0.00 0.00 67 1012.1
20260905065231 27 355 0.0 0.0 0.00 0.00 0.00 67 1012.2
20260905064753 27 355 0.0 0.0 0.00 0.00 0.00 67 1012.2
20260905064253 27 355 0.0 0.0 0.00 0.00 0.00 67 1012.1
20260905063753 27 355 0.0 0.0 0.00 0.00 0.00 67 1012.2
20260905063253 27 355 0.0 0.0 0.00 0.00 0.00 67 1012.2
20260905062753 27 355 0.0 0.0 0.00 0.00 0.00 67 1012.2
20260905062229 28 355 0.0 0.0 0.00 0.00 0.00 66 1012.2
20260905061753 28 355 0.0 0.0 0.00 0.00 0.00 66 1012.2
20260905061230 28 355 0.0 0.0 0.00 0.00 0.00 66 1012.4
20260905060753 28 355 0.0 0.0 0.00 0.00 0.00 66 1012.4
20260905060231 28 355 0.0 0.0 0.00 0.00 0.00 66 1012.4
20260905055753 28 355 0.0 0.0 0.00 0.00 0.00 65 1012.4
20260905055253 28 355 0.0 0.0 0.00 0.00 0.00 65 1012.5
20260905054753 28 355 0.0 0.0 0.00 0.00 0.00 65 1012.5
20260905054231 28 355 0.0 0.0 0.00 0.00 0.00 65 1012.6
20260905053753 28 355 0.0 0.0 0.00 0.00 0.00 65 1012.6
20260905053253 28 355 0.0 0.0 0.00 0.00 0.00 65 1012.7
20260905053230 28 355 0.0 0.0 0.00 0.00 0.00 64 1012.7
20260905052753 28 355 0.0 0.0 0.00 0.00 0.00 64 1012.8
20260905052253 28 355 0.0 0.0 0.00 0.00 0.00 64 1012.7
20260905051753 28 355 0.0 0.0 0.00 0.00 0.00 64 1012.7
20260905051253 28 355 0.0 0.0 0.00 0.00 0.00 63 1012.7
20260905050753 28 355 0.0 0.0 0.00 0.00 0.00 63 1012.8
20260905050231 28 355 0.0 0.0 0.00 0.00 0.00 63 1012.8
20260905045753 28 355 0.0 0.0 0.00 0.00 0.00 63 1012.9
20260905045253 28 355 0.0 0.0 0.00 0.00 0.00 63 1012.9
20260905044753 28 355 0.0 0.0 0.00 0.00 0.00 63 1012.9
20260905044231 28 355 0.0 0.0 0.00 0.00 0.00 63 1013.0
20260905043753 28 355 0.0 0.0 0.00 0.00 0.00 63 1013.0
20260905043253 28 355 0.0 0.0 0.00 0.00 0.00 63 1012.9
20260905042753 28 355 0.0 0.0 0.00 0.00 0.00 63 1012.9
20260905042253 28 355 0.0 0.0 0.00 0.00 0.00 63 1012.9
20260905041753 28 355 0.0 0.0 0.00 0.00 0.00 63 1012.8
20260905041231 28 355 0.0 0.0 0.00 0.00 0.00 63 1012.9
20260905040753 28 355 0.0 0.0 0.00 0.00 0.00 63 1012.8
20260905040231 28 355 0.0 0.0 0.00 0.00 0.00 63 1012.9
20260905035753 28 355 0.0 0.0 0.00 0.00 0.00 63 1012.9
20260905035231 28 355 0.0 0.0 0.00 0.00 0.00 63 1013.0
20260905034753 28 355 0.0 0.0 0.00 0.00 0.00 62 1013.0
20260905034253 28 355 0.0 0.0 0.00 0.00 0.00 62 1013.0
20260905034231 28 355 0.0 0.0 0.00 0.00 0.00 62 1012.9
20260905033753 29 355 0.0 0.0 0.00 0.00 0.00 62 1013.0
20260905033253 29 355 0.0 0.0 0.00 0.00 0.00 62 1013.0
20260905032753 29 355 0.0 0.0 0.00 0.00 0.00 62 1012.9
20260905032232 29 355 0.0 0.0 0.00 0.00 0.00 61 1012.9
20260905031753 29 355 0.0 0.0 0.00 0.00 0.00 62 1013.0
20260905031253 29 355 0.0 0.0 0.00 0.00 0.00 61 1013.0
20260905031231 29 355 0.0 0.0 0.00 0.00 0.00 61 1013.1
20260905030753 29 355 0.0 0.0 0.00 0.00 0.00 61 1013.0
20260905030253 30 355 0.0 0.0 0.00 0.00 0.00 61 1012.9
20260905025753 30 355 0.0 0.0 0.00 0.00 0.00 60 1012.9
20260905025253 30 355 0.0 0.0 0.00 0.00 0.00 60 1012.9
20260905025232 30 355 0.0 0.0 0.00 0.00 0.00 60 1012.8
20260905024753 30 355 0.0 0.0 0.00 0.00 0.00 59 1012.9
20260905024231 30 355 0.0 0.0 0.00 0.00 0.00 59 1012.8
20260905023753 30 355 0.0 0.0 0.00 0.00 0.00 59 1012.8
20260905023253 30 355 0.0 0.0 0.00 0.00 0.00 58 1012.9
20260905022753 30 355 0.0 0.0 0.00 0.00 0.00 58 1013.0
20260905022253 30 355 0.0 0.0 0.00 0.00 0.00 58 1012.9
20260905022231 30 355 0.0 0.0 0.00 0.00 0.00 58 1013.0
20260905021753 30 355 0.0 0.0 0.00 0.00 0.00 58 1013.0
20260905021253 29 355 0.0 0.0 0.00 0.00 0.00 59 1013.0
20260905021231 29 355 0.0 0.0 0.00 0.00 0.00 59 1012.9
20260905020753 29 355 0.0 0.0 0.00 0.00 0.00 59 1012.9
20260905020237 30 355 0.0 0.0 0.00 0.00 0.00 59 1012.8
20260905015753 30 355 0.0 0.0 0.00 0.00 0.00 58 1012.8
20260905015253 30 355 0.0 0.0 0.00 0.00 0.00 58 1012.9
20260905015231 30 355 0.0 0.0 0.00 0.00 0.00 58 1012.8
20260905014753 30 355 0.0 0.0 0.00 0.00 0.00 58 1012.8
20260905014253 30 355 0.0 0.0 0.00 0.00 0.00 58 1012.7
20260905013753 30 355 0.0 0.0 0.00 0.00 0.00 57 1012.6
20260905013253 30 355 0.0 0.0 0.00 0.00 0.00 56 1012.6
20260905013237 30 355 0.0 0.0 0.00 0.00 0.00 56 1012.5
20260905012753 30 355 0.0 0.0 0.00 0.00 0.00 56 1012.5
20260905012253 30 355 0.0 0.0 0.00 0.00 0.00 56 1012.5
20260905011753 30 355 0.0 0.0 0.00 0.00 0.00 56 1012.4
20260905011253 30 355 0.0 0.0 0.00 0.00 0.00 56 1012.4
20260905011231 30 355 0.0 0.0 0.00 0.00 0.00 56 1012.5
20260905010753 30 355 0.0 0.0 0.00 0.00 0.00 56 1012.4
20260905010253 30 355 0.0 0.0 0.00 0.00 0.00 55 1012.4
20260905005753 30 355 0.0 0.0 0.00 0.00 0.00 56 1012.4
20260905005254 31 355 0.0 0.0 0.00 0.00 0.00 55 1012.3
20260905005231 30 355 0.0 0.0 0.00 0.00 0.00 55 1012.3
20260905004754 31 355 0.0 0.0 0.00 0.00 0.00 55 1012.2
20260905004254 31 355 0.0 0.0 0.00 0.00 0.00 54 1012.2
20260905003754 31 355 0.0 0.0 0.00 0.00 0.00 54 1012.3
20260905003254 31 355 0.0 0.0 0.00 0.00 0.00 54 1012.2
20260905002754 31 355 0.0 0.0 0.00 0.00 0.00 54 1012.3
20260905002231 31 355 0.0 0.0 0.00 0.00 0.00 54 1012.2
20260905001754 31 355 0.0 0.0 0.00 0.00 0.00 54 1012.1
20260905001232 31 355 0.0 0.0 0.00 0.00 0.00 53 1012.1
20260905000754 31 355 0.0 0.0 0.00 0.00 0.00 53 1012.1
20260905000233 31 355 0.0 0.0 0.00 0.00 0.00 52 1012.1
20260904235754 32 355 0.0 0.0 0.00 0.00 0.00 51 1012.1
20260904235254 32 355 0.0 0.0 0.00 0.00 0.00 51 1012.1
20260904234754 32 355 0.0 0.0 0.00 0.00 0.00 51 1012.0
20260904234232 32 355 0.0 0.0 0.00 0.00 0.00 51 1012.0
20260904233754 32 355 0.0 0.0 0.00 0.00 0.00 51 1012.1
20260904233232 32 355 0.0 0.0 0.00 0.00 0.00 51 1012.1
20260904232754 32 355 0.0 0.0 0.00 0.00 0.00 51 1012.1
20260904232231 32 355 0.0 0.0 0.00 0.00 0.00 51 1012.0
20260904231754 32 355 0.0 0.0 0.00 0.00 0.00 51 1012.0
20260904231254 32 355 0.0 0.0 0.00 0.00 0.00 52 1011.9
20260904231231 32 355 0.0 0.0 0.00 0.00 0.00 53 1011.9
20260904230754 32 355 0.0 0.0 0.00 0.00 0.00 53 1011.9
20260904230231 32 355 0.0 0.0 0.00 0.00 0.00 51 1012.0
20260904225754 32 355 0.0 0.0 0.00 0.00 0.00 51 1012.0
20260904225254 32 355 0.0 0.0 0.00 0.00 0.00 50 1012.1
20260904224754 32 355 0.0 0.0 0.00 0.00 0.00 49 1012.1
20260904224254 33 355 0.0 0.0 0.00 0.00 0.00 49 1012.1
20260904224231 33 355 0.0 0.0 0.00 0.00 0.00 49 1012.2
20260904223754 33 355 0.0 0.0 0.00 0.00 0.00 50 1012.2
20260904223254 33 355 0.0 0.0 0.00 0.00 0.00 50 1012.2
20260904223231 33 355 0.0 0.0 0.00 0.00 0.00 50 1012.1
20260904222754 33 355 0.0 0.0 0.00 0.00 0.00 50 1012.1
20260904222231 33 355 0.0 0.0 0.00 0.00 0.00 50 1012.1
20260904221754 33 355 0.0 0.0 0.00 0.00 0.00 48 1012.1
20260904221231 33 355 0.0 0.0 0.00 0.00 0.00 49 1012.1
20260904220754 33 355 0.0 0.0 0.00 0.00 0.00 49 1012.0
20260904220254 33 355 0.0 0.0 0.00 0.00 0.00 47 1012.1
20260904215754 33 355 0.0 0.0 0.00 0.00 0.00 51 1012.1
20260904215232 33 355 0.0 0.0 0.00 0.00 0.00 49 1012.3
20260904214754 33 355 0.0 0.0 0.00 0.00 0.00 48 1012.3
20260904214254 33 355 0.0 0.0 0.00 0.00 0.00 48 1012.4
20260904213754 33 355 0.0 0.0 0.00 0.00 0.00 49 1012.4
20260904213254 33 355 0.0 0.0 0.00 0.00 0.00 49 1012.4
20260904213231 33 355 0.0 0.0 0.00 0.00 0.00 49 1012.5
20260904212754 33 355 0.0 0.0 0.00 0.00 0.00 50 1012.4
20260904212231 33 355 0.0 0.0 0.00 0.00 0.00 51 1012.4
20260904211754 33 355 0.0 0.0 0.00 0.00 0.00 48 1012.5
20260904211231 33 355 0.0 0.0 0.00 0.00 0.00 48 1012.5
20260904210754 33 355 0.0 1.6 0.00 0.00 0.00 47 1012.6
20260904210231 33 355 0.0 1.6 0.00 0.00 0.00 46 1012.6
20260904205754 34 355 0.0 0.0 0.00 0.00 0.00 47 1012.7
20260904205254 34 355 0.0 0.0 0.00 0.00 0.00 45 1012.7
20260904205232 34 355 0.0 0.0 0.00 0.00 0.00 44 1012.7
20260904204754 34 355 0.0 1.6 0.00 0.00 0.00 44 1012.7
20260904204254 34 355 0.0 3.2 0.00 0.00 0.00 43 1012.8
20260904203754 34 355 0.0 0.0 0.00 0.00 0.00 46 1012.8
20260904203254 34 355 0.0 1.6 0.00 0.00 0.00 45 1012.9
20260904202754 34 355 0.0 1.6 0.00 0.00 0.00 44 1012.9
20260904202254 34 355 0.0 3.2 0.00 0.00 0.00 44 1012.9
20260904202231 34 355 0.0 3.2 0.00 0.00 0.00 44 1013.0
20260904201754 34 355 0.0 1.6 0.00 0.00 0.00 45 1013.0
20260904201254 34 355 0.0 4.8 0.00 0.00 0.00 44 1013.1
20260904200754 35 355 0.0 3.2 0.00 0.00 0.00 45 1013.2
20260904200254 35 355 0.0 3.2 0.00 0.00 0.00 44 1013.3
20260904195754 35 355 0.0 0.0 0.00 0.00 0.00 45 1013.4
20260904195254 35 355 0.0 3.2 0.00 0.00 0.00 43 1013.4
20260904195232 35 355 0.0 3.2 0.00 0.00 0.00 41 1013.4
20260904194754 35 355 0.0 3.2 0.00 0.00 0.00 42 1013.4
20260904194232 35 355 0.0 3.2 0.00 0.00 0.00 43 1013.6
20260904193754 35 355 0.0 3.2 0.00 0.00 0.00 42 1013.7
20260904193254 35 355 0.0 4.8 0.00 0.00 0.00 42 1013.7
20260904192754 35 355 0.0 3.2 0.00 0.00 0.00 42 1013.9
20260904192254 35 355 0.0 1.6 0.00 0.00 0.00 42 1014.0
20260904192233 35 355 0.0 3.2 0.00 0.00 0.00 42 1014.0
20260904191754 35 355 0.0 3.2 0.00 0.00 0.00 42 1014.1
20260904191254 35 355 0.0 3.2 0.00 0.00 0.00 42 1014.1
20260904190754 35 355 0.0 0.0 0.00 0.00 0.00 44 1014.1
20260904190254 35 355 0.0 4.8 0.00 0.00 0.00 45 1014.1
20260904185754 35 355 0.0 9.7 0.00 0.00 0.00 44 1014.1
20260904185254 35 332 0.0 1.6 0.00 0.00 0.00 45 1014.2
20260904185232 35 332 0.0 1.6 0.00 0.00 0.00 45 1014.3
20260904184754 34 332 1.6 3.2 0.00 0.00 0.00 45 1014.4
20260904184232 34 332 1.6 3.2 0.00 0.00 0.00 45 1014.4
20260904183754 34 332 1.6 3.2 0.00 0.00 0.00 45 1014.4
20260904183254 34 332 0.0 3.2 0.00 0.00 0.00 44 1014.5
20260904182754 35 332 1.6 1.6 0.00 0.00 0.00 47 1014.5
20260904182254 34 332 1.6 4.8 0.00 0.00 0.00 45 1014.6
20260904182232 34 332 0.0 4.8 0.00 0.00 0.00 45 1014.5
20260904181754 34 320 0.0 3.2 0.00 0.00 0.00 45 1014.7
20260904181254 34 320 0.0 4.8 0.00 0.00 0.00 48 1014.7
20260904180754 33 320 1.6 3.2 0.00 0.00 0.00 47 1014.7
20260904180254 33 320 1.6 4.8 0.00 0.00 0.00 47 1014.9
20260904180232 33 320 1.6 4.8 0.00 0.00 0.00 47 1014.8
20260904175754 33 34 1.6 4.8 0.00 0.00 0.00 48 1014.8
20260904175232 33 34 0.0 3.2 0.00 0.00 0.00 47 1014.9
20260904174754 33 34 0.0 4.8 0.00 0.00 0.00 46 1014.9
20260904174254 34 34 1.6 3.2 0.00 0.00 0.00 47 1014.9
20260904174232 34 34 1.6 4.8 0.00 0.00 0.00 47 1015.0
20260904173754 34 159 1.6 6.4 0.00 0.00 0.00 49 1015.1
20260904173232 34 128 0.0 4.8 0.00 0.00 0.00 48 1015.0